Netzbetreibername:;Maintal-Werke GmbH;;
Netz- oder Umspannebene:;Umspannung MS/NS;;
Lastgangtyp:;Summe aller Einspeisungen;;
gesetzliche Grundlage:;� 23c Abs. 3 Nr. 6 EnWG;;
Einheit:;kW;;
Betrachtungszeitraum:;01.01.2023;31.12.2023;
;;;
Datum;von;bis;Wert
01.01.2023;00:00;00:15;82
01.01.2023;00:15;00:30;82
01.01.2023;00:30;00:45;82
01.01.2023;00:45;01:00;82
01.01.2023;01:00;01:15;83
01.01.2023;01:15;01:30;83
01.01.2023;01:30;01:45;82
01.01.2023;01:45;02:00;83
01.01.2023;02:00;02:15;82
01.01.2023;02:15;02:30;82
01.01.2023;02:30;02:45;82
01.01.2023;02:45;03:00;82
01.01.2023;03:00;03:15;82
01.01.2023;03:15;03:30;82
01.01.2023;03:30;03:45;82
01.01.2023;03:45;04:00;82
01.01.2023;04:00;04:15;82
01.01.2023;04:15;04:30;82
01.01.2023;04:30;04:45;82
01.01.2023;04:45;05:00;82
01.01.2023;05:00;05:15;82
01.01.2023;05:15;05:30;82
01.01.2023;05:30;05:45;82
01.01.2023;05:45;06:00;82
01.01.2023;06:00;06:15;82
01.01.2023;06:15;06:30;82
01.01.2023;06:30;06:45;82
01.01.2023;06:45;07:00;82
01.01.2023;07:00;07:15;82
01.01.2023;07:15;07:30;82
01.01.2023;07:30;07:45;82
01.01.2023;07:45;08:00;82
01.01.2023;08:00;08:15;82
01.01.2023;08:15;08:30;82
01.01.2023;08:30;08:45;84
01.01.2023;08:45;09:00;90
01.01.2023;09:00;09:15;100
01.01.2023;09:15;09:30;111
01.01.2023;09:30;09:45;127
01.01.2023;09:45;10:00;144
01.01.2023;10:00;10:15;154
01.01.2023;10:15;10:30;151
01.01.2023;10:30;10:45;137
01.01.2023;10:45;11:00;137
01.01.2023;11:00;11:15;151
01.01.2023;11:15;11:30;158
01.01.2023;11:30;11:45;157
01.01.2023;11:45;12:00;127
01.01.2023;12:00;12:15;121
01.01.2023;12:15;12:30;191
01.01.2023;12:30;12:45;213
01.01.2023;12:45;13:00;185
01.01.2023;13:00;13:15;126
01.01.2023;13:15;13:30;112
01.01.2023;13:30;13:45;143
01.01.2023;13:45;14:00;132
01.01.2023;14:00;14:15;137
01.01.2023;14:15;14:30;146
01.01.2023;14:30;14:45;110
01.01.2023;14:45;15:00;90
01.01.2023;15:00;15:15;90
01.01.2023;15:15;15:30;91
01.01.2023;15:30;15:45;96
01.01.2023;15:45;16:00;89
01.01.2023;16:00;16:15;85
01.01.2023;16:15;16:30;83
01.01.2023;16:30;16:45;82
01.01.2023;16:45;17:00;82
01.01.2023;17:00;17:15;82
01.01.2023;17:15;17:30;82
01.01.2023;17:30;17:45;82
01.01.2023;17:45;18:00;83
01.01.2023;18:00;18:15;82
01.01.2023;18:15;18:30;82
01.01.2023;18:30;18:45;82
01.01.2023;18:45;19:00;82
01.01.2023;19:00;19:15;81
01.01.2023;19:15;19:30;82
01.01.2023;19:30;19:45;82
01.01.2023;19:45;20:00;82
01.01.2023;20:00;20:15;82
01.01.2023;20:15;20:30;82
01.01.2023;20:30;20:45;82
01.01.2023;20:45;21:00;82
01.01.2023;21:00;21:15;82
01.01.2023;21:15;21:30;81
01.01.2023;21:30;21:45;82
01.01.2023;21:45;22:00;82
01.01.2023;22:00;22:15;82
01.01.2023;22:15;22:30;82
01.01.2023;22:30;22:45;82
01.01.2023;22:45;23:00;81
01.01.2023;23:00;23:15;81
01.01.2023;23:15;23:30;81
01.01.2023;23:30;23:45;81
02.01.2023;23:45;00:00;81
02.01.2023;00:00;00:15;82
02.01.2023;00:15;00:30;81
02.01.2023;00:30;00:45;81
02.01.2023;00:45;01:00;81
02.01.2023;01:00;01:15;82
02.01.2023;01:15;01:30;82
02.01.2023;01:30;01:45;81
02.01.2023;01:45;02:00;81
02.01.2023;02:00;02:15;81
02.01.2023;02:15;02:30;80,7
02.01.2023;02:30;02:45;80,55
02.01.2023;02:45;03:00;80,35
02.01.2023;03:00;03:15;80,2
02.01.2023;03:15;03:30;80
02.01.2023;03:30;03:45;80
02.01.2023;03:45;04:00;80
02.01.2023;04:00;04:15;80
02.01.2023;04:15;04:30;80
02.01.2023;04:30;04:45;80
02.01.2023;04:45;05:00;80
02.01.2023;05:00;05:15;80
02.01.2023;05:15;05:30;80
02.01.2023;05:30;05:45;80
02.01.2023;05:45;06:00;80
02.01.2023;06:00;06:15;80
02.01.2023;06:15;06:30;80
02.01.2023;06:30;06:45;80
02.01.2023;06:45;07:00;81
02.01.2023;07:00;07:15;81
02.01.2023;07:15;07:30;81
02.01.2023;07:30;07:45;82
02.01.2023;07:45;08:00;82
02.01.2023;08:00;08:15;82
02.01.2023;08:15;08:30;82
02.01.2023;08:30;08:45;83
02.01.2023;08:45;09:00;83
02.01.2023;09:00;09:15;86
02.01.2023;09:15;09:30;90
02.01.2023;09:30;09:45;92
02.01.2023;09:45;10:00;100
02.01.2023;10:00;10:15;98
02.01.2023;10:15;10:30;99
02.01.2023;10:30;10:45;100
02.01.2023;10:45;11:00;99
02.01.2023;11:00;11:15;99
02.01.2023;11:15;11:30;105
02.01.2023;11:30;11:45;105
02.01.2023;11:45;12:00;101
02.01.2023;12:00;12:15;106
02.01.2023;12:15;12:30;111
02.01.2023;12:30;12:45;93
02.01.2023;12:45;13:00;89
02.01.2023;13:00;13:15;91
02.01.2023;13:15;13:30;90
02.01.2023;13:30;13:45;92
02.01.2023;13:45;14:00;90
02.01.2023;14:00;14:15;91
02.01.2023;14:15;14:30;94
02.01.2023;14:30;14:45;92
02.01.2023;14:45;15:00;98
02.01.2023;15:00;15:15;100
02.01.2023;15:15;15:30;87
02.01.2023;15:30;15:45;84
02.01.2023;15:45;16:00;83
02.01.2023;16:00;16:15;83
02.01.2023;16:15;16:30;83
02.01.2023;16:30;16:45;82
02.01.2023;16:45;17:00;83
02.01.2023;17:00;17:15;83
02.01.2023;17:15;17:30;83
02.01.2023;17:30;17:45;83
02.01.2023;17:45;18:00;83
02.01.2023;18:00;18:15;82
02.01.2023;18:15;18:30;82
02.01.2023;18:30;18:45;82
02.01.2023;18:45;19:00;83
02.01.2023;19:00;19:15;83
02.01.2023;19:15;19:30;83
02.01.2023;19:30;19:45;83
02.01.2023;19:45;20:00;82
02.01.2023;20:00;20:15;82
02.01.2023;20:15;20:30;82
02.01.2023;20:30;20:45;82
02.01.2023;20:45;21:00;82
02.01.2023;21:00;21:15;81
02.01.2023;21:15;21:30;82
02.01.2023;21:30;21:45;82
02.01.2023;21:45;22:00;82
02.01.2023;22:00;22:15;82
02.01.2023;22:15;22:30;82
02.01.2023;22:30;22:45;82
02.01.2023;22:45;23:00;82
02.01.2023;23:00;23:15;82
02.01.2023;23:15;23:30;82
02.01.2023;23:30;23:45;81
03.01.2023;23:45;00:00;82
03.01.2023;00:00;00:15;82
03.01.2023;00:15;00:30;82
03.01.2023;00:30;00:45;82
03.01.2023;00:45;01:00;81
03.01.2023;01:00;01:15;81
03.01.2023;01:15;01:30;81
03.01.2023;01:30;01:45;81
03.01.2023;01:45;02:00;80
03.01.2023;02:00;02:15;81
03.01.2023;02:15;02:30;81
03.01.2023;02:30;02:45;81
03.01.2023;02:45;03:00;81
03.01.2023;03:00;03:15;80
03.01.2023;03:15;03:30;80
03.01.2023;03:30;03:45;80
03.01.2023;03:45;04:00;80
03.01.2023;04:00;04:15;80
03.01.2023;04:15;04:30;80
03.01.2023;04:30;04:45;80
03.01.2023;04:45;05:00;80
03.01.2023;05:00;05:15;80
03.01.2023;05:15;05:30;80
03.01.2023;05:30;05:45;80
03.01.2023;05:45;06:00;80
03.01.2023;06:00;06:15;80
03.01.2023;06:15;06:30;81
03.01.2023;06:30;06:45;81
03.01.2023;06:45;07:00;80
03.01.2023;07:00;07:15;80
03.01.2023;07:15;07:30;80
03.01.2023;07:30;07:45;81
03.01.2023;07:45;08:00;81
03.01.2023;08:00;08:15;82
03.01.2023;08:15;08:30;82
03.01.2023;08:30;08:45;83
03.01.2023;08:45;09:00;86
03.01.2023;09:00;09:15;91
03.01.2023;09:15;09:30;100
03.01.2023;09:30;09:45;125
03.01.2023;09:45;10:00;148
03.01.2023;10:00;10:15;144
03.01.2023;10:15;10:30;184
03.01.2023;10:30;10:45;210
03.01.2023;10:45;11:00;228
03.01.2023;11:00;11:15;236
03.01.2023;11:15;11:30;250
03.01.2023;11:30;11:45;259
03.01.2023;11:45;12:00;256
03.01.2023;12:00;12:15;182
03.01.2023;12:15;12:30;133
03.01.2023;12:30;12:45;126
03.01.2023;12:45;13:00;122
03.01.2023;13:00;13:15;130
03.01.2023;13:15;13:30;143
03.01.2023;13:30;13:45;112
03.01.2023;13:45;14:00;105
03.01.2023;14:00;14:15;109
03.01.2023;14:15;14:30;114
03.01.2023;14:30;14:45;122
03.01.2023;14:45;15:00;121
03.01.2023;15:00;15:15;106
03.01.2023;15:15;15:30;95
03.01.2023;15:30;15:45;90
03.01.2023;15:45;16:00;86
03.01.2023;16:00;16:15;84
03.01.2023;16:15;16:30;82
03.01.2023;16:30;16:45;82
03.01.2023;16:45;17:00;82
03.01.2023;17:00;17:15;82
03.01.2023;17:15;17:30;82
03.01.2023;17:30;17:45;82
03.01.2023;17:45;18:00;82
03.01.2023;18:00;18:15;82
03.01.2023;18:15;18:30;82
03.01.2023;18:30;18:45;82
03.01.2023;18:45;19:00;82
03.01.2023;19:00;19:15;82
03.01.2023;19:15;19:30;82
03.01.2023;19:30;19:45;82
03.01.2023;19:45;20:00;82
03.01.2023;20:00;20:15;82
03.01.2023;20:15;20:30;82
03.01.2023;20:30;20:45;82
03.01.2023;20:45;21:00;82
03.01.2023;21:00;21:15;82
03.01.2023;21:15;21:30;82
03.01.2023;21:30;21:45;82
03.01.2023;21:45;22:00;82
03.01.2023;22:00;22:15;82
03.01.2023;22:15;22:30;82
03.01.2023;22:30;22:45;81
03.01.2023;22:45;23:00;82
03.01.2023;23:00;23:15;82
03.01.2023;23:15;23:30;81
03.01.2023;23:30;23:45;81
04.01.2023;23:45;00:00;81
04.01.2023;00:00;00:15;80
04.01.2023;00:15;00:30;81
04.01.2023;00:30;00:45;81
04.01.2023;00:45;01:00;81
04.01.2023;01:00;01:15;81
04.01.2023;01:15;01:30;81
04.01.2023;01:30;01:45;80
04.01.2023;01:45;02:00;79
04.01.2023;02:00;02:15;79
04.01.2023;02:15;02:30;79
04.01.2023;02:30;02:45;80
04.01.2023;02:45;03:00;80
04.01.2023;03:00;03:15;80
04.01.2023;03:15;03:30;80
04.01.2023;03:30;03:45;80
04.01.2023;03:45;04:00;80
04.01.2023;04:00;04:15;80
04.01.2023;04:15;04:30;80
04.01.2023;04:30;04:45;79
04.01.2023;04:45;05:00;79
04.01.2023;05:00;05:15;80
04.01.2023;05:15;05:30;80
04.01.2023;05:30;05:45;80
04.01.2023;05:45;06:00;80
04.01.2023;06:00;06:15;80
04.01.2023;06:15;06:30;80
04.01.2023;06:30;06:45;80
04.01.2023;06:45;07:00;81
04.01.2023;07:00;07:15;81
04.01.2023;07:15;07:30;81
04.01.2023;07:30;07:45;81
04.01.2023;07:45;08:00;80
04.01.2023;08:00;08:15;81
04.01.2023;08:15;08:30;81
04.01.2023;08:30;08:45;81
04.01.2023;08:45;09:00;82
04.01.2023;09:00;09:15;82
04.01.2023;09:15;09:30;84
04.01.2023;09:30;09:45;87
04.01.2023;09:45;10:00;89
04.01.2023;10:00;10:15;88
04.01.2023;10:15;10:30;89
04.01.2023;10:30;10:45;91
04.01.2023;10:45;11:00;91
04.01.2023;11:00;11:15;94
04.01.2023;11:15;11:30;99
04.01.2023;11:30;11:45;101
04.01.2023;11:45;12:00;97
04.01.2023;12:00;12:15;118
04.01.2023;12:15;12:30;124
04.01.2023;12:30;12:45;122
04.01.2023;12:45;13:00;125
04.01.2023;13:00;13:15;126
04.01.2023;13:15;13:30;119
04.01.2023;13:30;13:45;116
04.01.2023;13:45;14:00;117
04.01.2023;14:00;14:15;116
04.01.2023;14:15;14:30;116
04.01.2023;14:30;14:45;112
04.01.2023;14:45;15:00;111
04.01.2023;15:00;15:15;109
04.01.2023;15:15;15:30;111
04.01.2023;15:30;15:45;111
04.01.2023;15:45;16:00;109
04.01.2023;16:00;16:15;107
04.01.2023;16:15;16:30;107
04.01.2023;16:30;16:45;106
04.01.2023;16:45;17:00;106
04.01.2023;17:00;17:15;107
04.01.2023;17:15;17:30;107
04.01.2023;17:30;17:45;107
04.01.2023;17:45;18:00;107
04.01.2023;18:00;18:15;106
04.01.2023;18:15;18:30;106
04.01.2023;18:30;18:45;107
04.01.2023;18:45;19:00;107
04.01.2023;19:00;19:15;107
04.01.2023;19:15;19:30;107
04.01.2023;19:30;19:45;107
04.01.2023;19:45;20:00;107
04.01.2023;20:00;20:15;107
04.01.2023;20:15;20:30;107
04.01.2023;20:30;20:45;107
04.01.2023;20:45;21:00;107
04.01.2023;21:00;21:15;107
04.01.2023;21:15;21:30;107
04.01.2023;21:30;21:45;107
04.01.2023;21:45;22:00;107
04.01.2023;22:00;22:15;106
04.01.2023;22:15;22:30;107
04.01.2023;22:30;22:45;107
04.01.2023;22:45;23:00;107
04.01.2023;23:00;23:15;107
04.01.2023;23:15;23:30;107
04.01.2023;23:30;23:45;107
05.01.2023;23:45;00:00;107
05.01.2023;00:00;00:15;107
05.01.2023;00:15;00:30;107
05.01.2023;00:30;00:45;107
05.01.2023;00:45;01:00;107
05.01.2023;01:00;01:15;107
05.01.2023;01:15;01:30;107
05.01.2023;01:30;01:45;107
05.01.2023;01:45;02:00;107
05.01.2023;02:00;02:15;107
05.01.2023;02:15;02:30;107
05.01.2023;02:30;02:45;107
05.01.2023;02:45;03:00;107
05.01.2023;03:00;03:15;107
05.01.2023;03:15;03:30;106
05.01.2023;03:30;03:45;107
05.01.2023;03:45;04:00;106
05.01.2023;04:00;04:15;106
05.01.2023;04:15;04:30;106
05.01.2023;04:30;04:45;106
05.01.2023;04:45;05:00;107
05.01.2023;05:00;05:15;106
05.01.2023;05:15;05:30;106
05.01.2023;05:30;05:45;107
05.01.2023;05:45;06:00;107
05.01.2023;06:00;06:15;107
05.01.2023;06:15;06:30;107
05.01.2023;06:30;06:45;107
05.01.2023;06:45;07:00;107
05.01.2023;07:00;07:15;107
05.01.2023;07:15;07:30;107
05.01.2023;07:30;07:45;107
05.01.2023;07:45;08:00;108
05.01.2023;08:00;08:15;107
05.01.2023;08:15;08:30;107
05.01.2023;08:30;08:45;107
05.01.2023;08:45;09:00;109
05.01.2023;09:00;09:15;116
05.01.2023;09:15;09:30;125
05.01.2023;09:30;09:45;127
05.01.2023;09:45;10:00;125
05.01.2023;10:00;10:15;131
05.01.2023;10:15;10:30;154
05.01.2023;10:30;10:45;131
05.01.2023;10:45;11:00;167
05.01.2023;11:00;11:15;164
05.01.2023;11:15;11:30;148
05.01.2023;11:30;11:45;235
05.01.2023;11:45;12:00;202
05.01.2023;12:00;12:15;213
05.01.2023;12:15;12:30;145
05.01.2023;12:30;12:45;171
05.01.2023;12:45;13:00;175
05.01.2023;13:00;13:15;191
05.01.2023;13:15;13:30;167
05.01.2023;13:30;13:45;148
05.01.2023;13:45;14:00;176
05.01.2023;14:00;14:15;147
05.01.2023;14:15;14:30;176
05.01.2023;14:30;14:45;150
05.01.2023;14:45;15:00;124
05.01.2023;15:00;15:15;117
05.01.2023;15:15;15:30;117
05.01.2023;15:30;15:45;119
05.01.2023;15:45;16:00;115
05.01.2023;16:00;16:15;113
05.01.2023;16:15;16:30;109
05.01.2023;16:30;16:45;107
05.01.2023;16:45;17:00;106
05.01.2023;17:00;17:15;107
05.01.2023;17:15;17:30;107
05.01.2023;17:30;17:45;107
05.01.2023;17:45;18:00;107
05.01.2023;18:00;18:15;107
05.01.2023;18:15;18:30;107
05.01.2023;18:30;18:45;107
05.01.2023;18:45;19:00;107
05.01.2023;19:00;19:15;107
05.01.2023;19:15;19:30;107
05.01.2023;19:30;19:45;107
05.01.2023;19:45;20:00;106
05.01.2023;20:00;20:15;107
05.01.2023;20:15;20:30;107
05.01.2023;20:30;20:45;107
05.01.2023;20:45;21:00;106
05.01.2023;21:00;21:15;107
05.01.2023;21:15;21:30;107
05.01.2023;21:30;21:45;106
05.01.2023;21:45;22:00;107
05.01.2023;22:00;22:15;106
05.01.2023;22:15;22:30;106
05.01.2023;22:30;22:45;106
05.01.2023;22:45;23:00;106
05.01.2023;23:00;23:15;106
05.01.2023;23:15;23:30;106
05.01.2023;23:30;23:45;106
06.01.2023;23:45;00:00;106
06.01.2023;00:00;00:15;106
06.01.2023;00:15;00:30;106
06.01.2023;00:30;00:45;105
06.01.2023;00:45;01:00;105
06.01.2023;01:00;01:15;105
06.01.2023;01:15;01:30;105
06.01.2023;01:30;01:45;103
06.01.2023;01:45;02:00;100
06.01.2023;02:00;02:15;99
06.01.2023;02:15;02:30;101
06.01.2023;02:30;02:45;101
06.01.2023;02:45;03:00;101
06.01.2023;03:00;03:15;102
06.01.2023;03:15;03:30;102
06.01.2023;03:30;03:45;102
06.01.2023;03:45;04:00;102
06.01.2023;04:00;04:15;102
06.01.2023;04:15;04:30;103
06.01.2023;04:30;04:45;103
06.01.2023;04:45;05:00;102
06.01.2023;05:00;05:15;102
06.01.2023;05:15;05:30;103
06.01.2023;05:30;05:45;103
06.01.2023;05:45;06:00;103
06.01.2023;06:00;06:15;103
06.01.2023;06:15;06:30;103
06.01.2023;06:30;06:45;103
06.01.2023;06:45;07:00;104
06.01.2023;07:00;07:15;104
06.01.2023;07:15;07:30;104
06.01.2023;07:30;07:45;104
06.01.2023;07:45;08:00;104
06.01.2023;08:00;08:15;105
06.01.2023;08:15;08:30;104
06.01.2023;08:30;08:45;105
06.01.2023;08:45;09:00;115
06.01.2023;09:00;09:15;118
06.01.2023;09:15;09:30;116
06.01.2023;09:30;09:45;115
06.01.2023;09:45;10:00;118
06.01.2023;10:00;10:15;123
06.01.2023;10:15;10:30;119
06.01.2023;10:30;10:45;117
06.01.2023;10:45;11:00;118
06.01.2023;11:00;11:15;120
06.01.2023;11:15;11:30;124
06.01.2023;11:30;11:45;141
06.01.2023;11:45;12:00;143
06.01.2023;12:00;12:15;177
06.01.2023;12:15;12:30;152
06.01.2023;12:30;12:45;123
06.01.2023;12:45;13:00;120
06.01.2023;13:00;13:15;132
06.01.2023;13:15;13:30;143
06.01.2023;13:30;13:45;158
06.01.2023;13:45;14:00;186
06.01.2023;14:00;14:15;154
06.01.2023;14:15;14:30;133
06.01.2023;14:30;14:45;123
06.01.2023;14:45;15:00;120
06.01.2023;15:00;15:15;117
06.01.2023;15:15;15:30;110
06.01.2023;15:30;15:45;115
06.01.2023;15:45;16:00;113
06.01.2023;16:00;16:15;109
06.01.2023;16:15;16:30;104
06.01.2023;16:30;16:45;103
06.01.2023;16:45;17:00;103
06.01.2023;17:00;17:15;103
06.01.2023;17:15;17:30;104
06.01.2023;17:30;17:45;104
06.01.2023;17:45;18:00;104
06.01.2023;18:00;18:15;104
06.01.2023;18:15;18:30;104
06.01.2023;18:30;18:45;104
06.01.2023;18:45;19:00;105
06.01.2023;19:00;19:15;105
06.01.2023;19:15;19:30;105
06.01.2023;19:30;19:45;105
06.01.2023;19:45;20:00;105
06.01.2023;20:00;20:15;105
06.01.2023;20:15;20:30;105
06.01.2023;20:30;20:45;105
06.01.2023;20:45;21:00;105
06.01.2023;21:00;21:15;105
06.01.2023;21:15;21:30;104
06.01.2023;21:30;21:45;105
06.01.2023;21:45;22:00;105
06.01.2023;22:00;22:15;105
06.01.2023;22:15;22:30;105
06.01.2023;22:30;22:45;105
06.01.2023;22:45;23:00;105
06.01.2023;23:00;23:15;105
06.01.2023;23:15;23:30;104
06.01.2023;23:30;23:45;105
07.01.2023;23:45;00:00;105
07.01.2023;00:00;00:15;104
07.01.2023;00:15;00:30;105
07.01.2023;00:30;00:45;104
07.01.2023;00:45;01:00;104
07.01.2023;01:00;01:15;104
07.01.2023;01:15;01:30;104
07.01.2023;01:30;01:45;104
07.01.2023;01:45;02:00;104
07.01.2023;02:00;02:15;104
07.01.2023;02:15;02:30;104
07.01.2023;02:30;02:45;104
07.01.2023;02:45;03:00;104
07.01.2023;03:00;03:15;104
07.01.2023;03:15;03:30;104
07.01.2023;03:30;03:45;104
07.01.2023;03:45;04:00;104
07.01.2023;04:00;04:15;104
07.01.2023;04:15;04:30;104
07.01.2023;04:30;04:45;104
07.01.2023;04:45;05:00;104
07.01.2023;05:00;05:15;104
07.01.2023;05:15;05:30;104
07.01.2023;05:30;05:45;104
07.01.2023;05:45;06:00;103
07.01.2023;06:00;06:15;103
07.01.2023;06:15;06:30;104
07.01.2023;06:30;06:45;104
07.01.2023;06:45;07:00;104
07.01.2023;07:00;07:15;104
07.01.2023;07:15;07:30;104
07.01.2023;07:30;07:45;103
07.01.2023;07:45;08:00;104
07.01.2023;08:00;08:15;104
07.01.2023;08:15;08:30;105
07.01.2023;08:30;08:45;105
07.01.2023;08:45;09:00;105
07.01.2023;09:00;09:15;110
07.01.2023;09:15;09:30;112
07.01.2023;09:30;09:45;114
07.01.2023;09:45;10:00;119
07.01.2023;10:00;10:15;119
07.01.2023;10:15;10:30;122
07.01.2023;10:30;10:45;121
07.01.2023;10:45;11:00;119
07.01.2023;11:00;11:15;120
07.01.2023;11:15;11:30;126
07.01.2023;11:30;11:45;143
07.01.2023;11:45;12:00;161
07.01.2023;12:00;12:15;175
07.01.2023;12:15;12:30;186
07.01.2023;12:30;12:45;190
07.01.2023;12:45;13:00;181
07.01.2023;13:00;13:15;156
07.01.2023;13:15;13:30;138
07.01.2023;13:30;13:45;133
07.01.2023;13:45;14:00;129
07.01.2023;14:00;14:15;123
07.01.2023;14:15;14:30;120
07.01.2023;14:30;14:45;117
07.01.2023;14:45;15:00;118
07.01.2023;15:00;15:15;119
07.01.2023;15:15;15:30;118
07.01.2023;15:30;15:45;112
07.01.2023;15:45;16:00;111
07.01.2023;16:00;16:15;109
07.01.2023;16:15;16:30;106
07.01.2023;16:30;16:45;104
07.01.2023;16:45;17:00;104
07.01.2023;17:00;17:15;105
07.01.2023;17:15;17:30;105
07.01.2023;17:30;17:45;105
07.01.2023;17:45;18:00;105
07.01.2023;18:00;18:15;104
07.01.2023;18:15;18:30;105
07.01.2023;18:30;18:45;104
07.01.2023;18:45;19:00;105
07.01.2023;19:00;19:15;105
07.01.2023;19:15;19:30;105
07.01.2023;19:30;19:45;105
07.01.2023;19:45;20:00;105
07.01.2023;20:00;20:15;104
07.01.2023;20:15;20:30;105
07.01.2023;20:30;20:45;104
07.01.2023;20:45;21:00;104
07.01.2023;21:00;21:15;105
07.01.2023;21:15;21:30;105
07.01.2023;21:30;21:45;105
07.01.2023;21:45;22:00;104
07.01.2023;22:00;22:15;104
07.01.2023;22:15;22:30;105
07.01.2023;22:30;22:45;104
07.01.2023;22:45;23:00;104
07.01.2023;23:00;23:15;104
07.01.2023;23:15;23:30;104
07.01.2023;23:30;23:45;105
08.01.2023;23:45;00:00;104
08.01.2023;00:00;00:15;104
08.01.2023;00:15;00:30;104
08.01.2023;00:30;00:45;104
08.01.2023;00:45;01:00;104
08.01.2023;01:00;01:15;103
08.01.2023;01:15;01:30;103
08.01.2023;01:30;01:45;103
08.01.2023;01:45;02:00;103
08.01.2023;02:00;02:15;103
08.01.2023;02:15;02:30;103
08.01.2023;02:30;02:45;103
08.01.2023;02:45;03:00;103
08.01.2023;03:00;03:15;103
08.01.2023;03:15;03:30;103
08.01.2023;03:30;03:45;103
08.01.2023;03:45;04:00;103
08.01.2023;04:00;04:15;102
08.01.2023;04:15;04:30;102
08.01.2023;04:30;04:45;102
08.01.2023;04:45;05:00;102
08.01.2023;05:00;05:15;102
08.01.2023;05:15;05:30;102
08.01.2023;05:30;05:45;102
08.01.2023;05:45;06:00;103
08.01.2023;06:00;06:15;103
08.01.2023;06:15;06:30;103
08.01.2023;06:30;06:45;103
08.01.2023;06:45;07:00;104
08.01.2023;07:00;07:15;104
08.01.2023;07:15;07:30;104
08.01.2023;07:30;07:45;103
08.01.2023;07:45;08:00;104
08.01.2023;08:00;08:15;104
08.01.2023;08:15;08:30;104
08.01.2023;08:30;08:45;104
08.01.2023;08:45;09:00;106
08.01.2023;09:00;09:15;111
08.01.2023;09:15;09:30;114
08.01.2023;09:30;09:45;111
08.01.2023;09:45;10:00;113
08.01.2023;10:00;10:15;114
08.01.2023;10:15;10:30;115
08.01.2023;10:30;10:45;122
08.01.2023;10:45;11:00;129
08.01.2023;11:00;11:15;131
08.01.2023;11:15;11:30;130
08.01.2023;11:30;11:45;133
08.01.2023;11:45;12:00;139
08.01.2023;12:00;12:15;178
08.01.2023;12:15;12:30;283
08.01.2023;12:30;12:45;266
08.01.2023;12:45;13:00;202
08.01.2023;13:00;13:15;217
08.01.2023;13:15;13:30;191
08.01.2023;13:30;13:45;167
08.01.2023;13:45;14:00;154
08.01.2023;14:00;14:15;164
08.01.2023;14:15;14:30;127
08.01.2023;14:30;14:45;122
08.01.2023;14:45;15:00;115
08.01.2023;15:00;15:15;112
08.01.2023;15:15;15:30;128
08.01.2023;15:30;15:45;130
08.01.2023;15:45;16:00;117
08.01.2023;16:00;16:15;116
08.01.2023;16:15;16:30;114
08.01.2023;16:30;16:45;106
08.01.2023;16:45;17:00;105
08.01.2023;17:00;17:15;105
08.01.2023;17:15;17:30;105
08.01.2023;17:30;17:45;105
08.01.2023;17:45;18:00;105
08.01.2023;18:00;18:15;105
08.01.2023;18:15;18:30;105
08.01.2023;18:30;18:45;105
08.01.2023;18:45;19:00;105
08.01.2023;19:00;19:15;105
08.01.2023;19:15;19:30;105
08.01.2023;19:30;19:45;105
08.01.2023;19:45;20:00;105
08.01.2023;20:00;20:15;105
08.01.2023;20:15;20:30;105
08.01.2023;20:30;20:45;104
08.01.2023;20:45;21:00;105
08.01.2023;21:00;21:15;105
08.01.2023;21:15;21:30;105
08.01.2023;21:30;21:45;105
08.01.2023;21:45;22:00;104
08.01.2023;22:00;22:15;104
08.01.2023;22:15;22:30;104
08.01.2023;22:30;22:45;104
08.01.2023;22:45;23:00;104
08.01.2023;23:00;23:15;104
08.01.2023;23:15;23:30;104
08.01.2023;23:30;23:45;104
09.01.2023;23:45;00:00;104
09.01.2023;00:00;00:15;104
09.01.2023;00:15;00:30;104
09.01.2023;00:30;00:45;104
09.01.2023;00:45;01:00;104
09.01.2023;01:00;01:15;104
09.01.2023;01:15;01:30;104
09.01.2023;01:30;01:45;104
09.01.2023;01:45;02:00;103
09.01.2023;02:00;02:15;103
09.01.2023;02:15;02:30;103
09.01.2023;02:30;02:45;103
09.01.2023;02:45;03:00;102
09.01.2023;03:00;03:15;102
09.01.2023;03:15;03:30;102
09.01.2023;03:30;03:45;103
09.01.2023;03:45;04:00;102
09.01.2023;04:00;04:15;103
09.01.2023;04:15;04:30;103
09.01.2023;04:30;04:45;103
09.01.2023;04:45;05:00;103
09.01.2023;05:00;05:15;103
09.01.2023;05:15;05:30;103
09.01.2023;05:30;05:45;103
09.01.2023;05:45;06:00;103
09.01.2023;06:00;06:15;103
09.01.2023;06:15;06:30;104
09.01.2023;06:30;06:45;104
09.01.2023;06:45;07:00;104
09.01.2023;07:00;07:15;104
09.01.2023;07:15;07:30;104
09.01.2023;07:30;07:45;104
09.01.2023;07:45;08:00;104
09.01.2023;08:00;08:15;104
09.01.2023;08:15;08:30;104
09.01.2023;08:30;08:45;105
09.01.2023;08:45;09:00;105
09.01.2023;09:00;09:15;108
09.01.2023;09:15;09:30;112
09.01.2023;09:30;09:45;113
09.01.2023;09:45;10:00;117
09.01.2023;10:00;10:15;117
09.01.2023;10:15;10:30;128
09.01.2023;10:30;10:45;126
09.01.2023;10:45;11:00;134
09.01.2023;11:00;11:15;152
09.01.2023;11:15;11:30;236
09.01.2023;11:30;11:45;262
09.01.2023;11:45;12:00;277
09.01.2023;12:00;12:15;283
09.01.2023;12:15;12:30;336
09.01.2023;12:30;12:45;192
09.01.2023;12:45;13:00;299
09.01.2023;13:00;13:15;311
09.01.2023;13:15;13:30;214
09.01.2023;13:30;13:45;143
09.01.2023;13:45;14:00;127
09.01.2023;14:00;14:15;138
09.01.2023;14:15;14:30;143
09.01.2023;14:30;14:45;139
09.01.2023;14:45;15:00;142
09.01.2023;15:00;15:15;144
09.01.2023;15:15;15:30;150
09.01.2023;15:30;15:45;121
09.01.2023;15:45;16:00;110
09.01.2023;16:00;16:15;107
09.01.2023;16:15;16:30;105
09.01.2023;16:30;16:45;104
09.01.2023;16:45;17:00;104
09.01.2023;17:00;17:15;104
09.01.2023;17:15;17:30;104
09.01.2023;17:30;17:45;104
09.01.2023;17:45;18:00;105
09.01.2023;18:00;18:15;105
09.01.2023;18:15;18:30;105
09.01.2023;18:30;18:45;105
09.01.2023;18:45;19:00;105
09.01.2023;19:00;19:15;105
09.01.2023;19:15;19:30;105
09.01.2023;19:30;19:45;105
09.01.2023;19:45;20:00;105
09.01.2023;20:00;20:15;105
09.01.2023;20:15;20:30;104
09.01.2023;20:30;20:45;105
09.01.2023;20:45;21:00;105
09.01.2023;21:00;21:15;105
09.01.2023;21:15;21:30;105
09.01.2023;21:30;21:45;105
09.01.2023;21:45;22:00;104
09.01.2023;22:00;22:15;104